Weather History for Gonzales, LA

Change the Weather History Date:

Tuesday, April 15, 2014

  Actual Average (KBTR) Record (KBTR)
Temperature  
Mean Temperature 52 °F 68 °F  
Max Temperature 60 °F 79 °F 89 °F (1972)
Min Temperature 44 °F 57 °F 36 °F (2008)
Degree Days  
Heating Degree Days 13 2  
Month to date heating degree days 38  
Since 1 July heating degree days 1540  
Cooling Degree Days 0 5  
Month to date cooling degree days 55  
Year to date cooling degree days 144  
Growing Degree Days 2 (Base 50)    
Moisture  
Dew Point 37 °F    
Average Humidity 61    
Maximum Humidity 98    
Minimum Humidity 30    
Precipitation  
Precipitation 0.00 in 0.15 in 4.80 in (1896)
Month to date precipitation 2.31  
Year to date precipitation 17.48  
Snow  
Snow 0.00 in - - ()
Month to date snowfall  
Since 1 July snowfall  
Snow Depth -    
Sea Level Pressure  
Sea Level Pressure 30.11 in    
Wind  
Wind Speed 13 mph (NNW)    
Max Wind Speed 21 mph    
Max Gust Speed 31 mph    
Visibility 10 miles    
Events Rain , Thunderstorm    
T = Trace of Precipitation, MM = Missing Value Source: NWS Daily Summary

Daily Weather History Graph

Daily Weather History Graph

Search for Another Location

Airport:

Trip Planner

Search our weather history database for the weather conditions in past years. The results will help you decide how hot, cold, wet, or windy it might be!

Date:

Astronomy

Apr. 15, 2014 Rise Set
Actual Time 6:36 AM CDT 7:31 PM CDT
Civil Twilight 6:12 AM CDT 7:55 PM CDT
Nautical Twilight 5:43 AM CDT 8:24 PM CDT
Astronomical Twilight 5:13 AM CDT 8:54 PM CDT
Moon 8:09 PM CDT (4/15) 6:45 AM CDT (4/15)
Length of Visible Light 13h 43m
Length of Day
12h 54m
Full, 100% of the Moon is Illuminated
Apr 15
Full
Apr 22
Last Quarter
Apr 29
New
May 6
First Quarter
May 14
Full

Hourly Weather History & Observations

Time (CDT) Temp. Windchill Dew Point Humidity Pressure Visibility Wind Dir Wind Speed Gust Speed Precip Events Conditions
12:15 AM 52.5 °F - 51.4 °F 96% 29.98 in 10.0 mi NNW 11.5 mph 21.9 mph N/A   Overcast
12:35 AM 52.2 °F - 51.1 °F 96% 29.98 in 10.0 mi NNW 16.1 mph 25.3 mph N/A   Overcast
12:55 AM 51.8 °F - 50.0 °F 94% 29.97 in 10.0 mi NNW 10.4 mph 20.7 mph N/A Thunderstorm Overcast
1:15 AM 51.4 °F - 50.4 °F 96% 29.98 in 10.0 mi NW 12.7 mph 20.7 mph N/A   Overcast
1:35 AM 50.7 °F - 50.2 °F 98% 29.98 in 10.0 mi NW 17.3 mph 21.9 mph N/A   Overcast
1:55 AM 50.2 °F - 49.1 °F 96% 29.98 in 10.0 mi NW 16.1 mph 26.5 mph N/A   Overcast
2:15 AM 50.0 °F - 48.0 °F 93% 29.98 in 10.0 mi NW 13.8 mph 27.6 mph N/A   Overcast
2:35 AM 49.5 °F - 47.7 °F 94% 29.97 in 10.0 mi NNW 17.3 mph 24.2 mph N/A   Overcast
2:55 AM 49.3 °F - 46.6 °F 90% 29.98 in 10.0 mi NW 16.1 mph 21.9 mph N/A   Overcast
3:15 AM 49.1 °F - 46.0 °F 89% 29.98 in 10.0 mi NNW 17.3 mph 21.9 mph N/A   Overcast
3:35 AM 49.1 °F - 46.0 °F 89% 29.99 in 10.0 mi NNW 18.4 mph 27.6 mph N/A   Overcast
3:55 AM 49.1 °F - 45.5 °F 87% 30.00 in 10.0 mi NW 12.7 mph 23.0 mph N/A   Overcast
4:15 AM 48.4 °F - 44.6 °F 87% 30.02 in 10.0 mi NW 13.8 mph 26.5 mph N/A   Overcast
4:35 AM 47.5 °F - 44.8 °F 90% 30.02 in 7.0 mi NNW 17.3 mph 21.9 mph N/A Rain Light Rain
4:55 AM 47.1 °F - 44.2 °F 90% 30.03 in 10.0 mi NNW 15.0 mph 20.7 mph N/A   Overcast
5:15 AM 47.3 °F - 43.7 °F 87% 30.03 in 10.0 mi NW 18.4 mph 24.2 mph N/A   Overcast
5:35 AM 46.8 °F - 42.6 °F 85% 30.04 in 10.0 mi NNW 12.7 mph 21.9 mph N/A   Overcast
5:55 AM 46.6 °F - 41.9 °F 84% 30.05 in 10.0 mi NNW 18.4 mph 24.2 mph N/A   Overcast
6:15 AM 45.7 °F 38.0 °F 38.8 °F 77% 30.06 in 10.0 mi NNW 19.6 mph 31.1 mph N/A   Overcast
6:35 AM 45.0 °F 38.5 °F 37.6 °F 75% 30.08 in 10.0 mi NW 13.8 mph 25.3 mph N/A   Overcast
6:55 AM 44.8 °F 38.3 °F 36.9 °F 74% 30.09 in 10.0 mi NNW 13.8 mph 26.5 mph N/A   Overcast
7:15 AM 44.6 °F 36.4 °F 36.9 °F 74% 30.10 in 10.0 mi NNW 20.7 mph 28.8 mph N/A   Overcast
7:35 AM 44.6 °F 38.4 °F 36.3 °F 73% 30.11 in 10.0 mi NNW 12.7 mph 23.0 mph N/A   Overcast
7:55 AM 44.8 °F 38.3 °F 36.7 °F 73% 30.12 in 10.0 mi NNW 13.8 mph 18.4 mph N/A   Overcast
8:15 AM 44.8 °F 38.7 °F 36.0 °F 71% 30.13 in 10.0 mi NNW 12.7 mph 27.6 mph N/A   Overcast
8:35 AM 44.8 °F 39.0 °F 36.0 °F 71% 30.14 in 10.0 mi NNW 11.5 mph 27.6 mph N/A   Overcast
8:55 AM 44.8 °F 37.1 °F 35.8 °F 71% 30.15 in 10.0 mi NNW 18.4 mph 26.5 mph N/A   Overcast
9:15 AM 45.7 °F 39.1 °F 35.6 °F 68% 30.16 in 10.0 mi North 15.0 mph 23.0 mph N/A   Overcast
9:35 AM 46.0 °F 38.5 °F 35.2 °F 66% 30.16 in 10.0 mi NNW 19.6 mph 31.1 mph N/A   Overcast
9:55 AM 46.8 °F - 36.0 °F 66% 30.17 in 10.0 mi NW 18.4 mph 25.3 mph N/A   Overcast
10:15 AM 46.2 °F 40.5 °F 35.6 °F 66% 30.18 in 10.0 mi NNW 12.7 mph 28.8 mph N/A   Overcast
10:35 AM 48.2 °F - 36.3 °F 63% 30.18 in 10.0 mi NNW 16.1 mph 25.3 mph N/A   Scattered Clouds
10:55 AM 49.6 °F - 37.2 °F 62% 30.18 in 10.0 mi NNW 15.0 mph 25.3 mph N/A   Clear
11:15 AM 50.9 °F - 37.6 °F 60% 30.18 in 10.0 mi North 6.9 mph 17.3 mph N/A   Scattered Clouds
11:35 AM 51.1 °F - 37.0 °F 59% 30.17 in 10.0 mi NNW 13.8 mph 23.0 mph N/A   Mostly Cloudy
11:55 AM 52.2 °F - 34.9 °F 52% 30.16 in 10.0 mi NNW 16.1 mph 24.2 mph N/A   Scattered Clouds
12:35 PM 54.7 °F - 35.6 °F 49% 30.14 in 10.0 mi North 12.7 mph 19.6 mph N/A   Clear
12:55 PM 55.9 °F - 37.4 °F 50% 30.13 in 10.0 mi NNW 10.4 mph 23.0 mph N/A   Clear
1:15 PM 56.5 °F - 35.6 °F 46% 30.12 in 10.0 mi NNW 9.2 mph 21.9 mph N/A   Clear
1:35 PM 56.5 °F - 34.0 °F 43% 30.12 in 10.0 mi North 10.4 mph 20.7 mph N/A   Clear
1:55 PM 58.6 °F - 35.6 °F 42% 30.12 in 10.0 mi North 12.7 mph 21.9 mph N/A   Clear
2:15 PM 59.0 °F - 35.8 °F 42% 30.12 in 10.0 mi NNW 9.2 mph 18.4 mph N/A   Clear
2:35 PM 58.6 °F - 32.2 °F 37% 30.13 in 10.0 mi North 6.9 mph 21.9 mph N/A   Clear
2:55 PM 59.7 °F - 32.4 °F 36% 30.12 in 10.0 mi NNW 11.5 mph - N/A   Clear
3:15 PM 60.1 °F - 30.7 °F 33% 30.12 in 10.0 mi NNW 12.7 mph 20.7 mph N/A   Clear
3:35 PM 60.3 °F - 30.2 °F 32% 30.11 in 10.0 mi North 15.0 mph 20.7 mph N/A   Clear
3:55 PM 60.3 °F - 29.7 °F 31% 30.10 in 10.0 mi North 8.1 mph 16.1 mph N/A   Clear
4:15 PM 60.3 °F - 28.8 °F 30% 30.10 in 10.0 mi North 10.4 mph 18.4 mph N/A   Clear
4:55 PM 60.1 °F - 28.4 °F 30% 30.10 in 10.0 mi North 10.4 mph 18.4 mph N/A   Clear
5:15 PM 59.7 °F - 27.7 °F 30% 30.11 in 10.0 mi North 10.4 mph - N/A   Clear
5:35 PM 60.1 °F - 29.8 °F 32% 30.12 in 10.0 mi NNW 15.0 mph - N/A   Clear
5:55 PM 59.2 °F - 30.2 °F 33% 30.12 in 10.0 mi NNW 10.4 mph 19.6 mph N/A   Clear
6:15 PM 58.6 °F - 30.6 °F 34% 30.13 in 10.0 mi NW 13.8 mph 17.3 mph N/A   Clear
6:35 PM 57.7 °F - 30.6 °F 36% 30.13 in 10.0 mi NNW 9.2 mph - N/A   Clear
6:55 PM 56.7 °F - 30.0 °F 36% 30.14 in 10.0 mi NNW 10.4 mph - N/A   Clear
7:15 PM 55.4 °F - 30.0 °F 38% 30.14 in 10.0 mi NNW 6.9 mph - N/A   Clear
7:35 PM 53.8 °F - 30.7 °F 41% 30.15 in 10.0 mi NNW 6.9 mph - N/A   Clear
7:55 PM 53.2 °F - 30.0 °F 41% 30.15 in 10.0 mi NNW 8.1 mph - N/A   Clear
8:15 PM 51.4 °F - 31.6 °F 47% 30.16 in 10.0 mi NNW 5.8 mph - N/A   Clear
8:35 PM 52.0 °F - 30.9 °F 45% 30.17 in 10.0 mi NNW 5.8 mph - N/A   Clear
8:55 PM 50.9 °F - 31.1 °F 47% 30.18 in 10.0 mi North 5.8 mph - N/A   Clear
9:15 PM 50.2 °F - 31.8 °F 49% 30.19 in 10.0 mi NNW 6.9 mph - N/A   Clear
9:35 PM 50.2 °F - 31.6 °F 49% 30.20 in 10.0 mi NNW 5.8 mph - N/A   Clear
9:55 PM 49.3 °F - 32.0 °F 51% 30.21 in 10.0 mi North 5.8 mph - N/A   Clear
10:15 PM 49.3 °F - 32.0 °F 51% 30.21 in 10.0 mi North 5.8 mph - N/A   Clear
10:35 PM 48.6 °F - 32.0 °F 53% 30.20 in 10.0 mi North 4.6 mph - N/A   Clear
10:55 PM 48.0 °F - 32.2 °F 54% 30.19 in 10.0 mi North 4.6 mph - N/A   Clear
11:15 PM 47.5 °F - 32.7 °F 57% 30.19 in 10.0 mi North 5.8 mph - N/A   Clear
11:35 PM 47.3 °F - 32.9 °F 57% 30.18 in 10.0 mi North 6.9 mph - N/A   Clear
11:55 PM 46.8 °F - 33.1 °F 59% 30.18 in 10.0 mi North 5.8 mph - N/A   Clear